Simultaneous Nadir Overpasses (SNOs) Predictions

Prediction of SNOs between NOAA-20 and LANDSAT-8 Satellite Orbit:

Table of predicted SNOs for the next 14.0 days since TLE Epoch: 5/21/2022
Index Date (NOAA-20) Time (NOAA-20) Lat,Lon (NOAA-20) SZA (NOAA-20 ) Date (LANDSAT-8) Time (LANDSAT-8) Lat,Lon (LANDSAT-8) SZA (LANDSAT-8 ) Distance(km) Time Diff (sec)
1 05/21/2022 14:16:07 70.19, -37.72 49.86 05/21/2022 14:17:06 70.19, -37.70 49.84 0.98 59
2 05/21/2022 15:06:48 -70.06, 129.80 130.29 05/21/2022 15:06:36 -70.07, 129.76 130.28 1.50 12
3 05/21/2022 15:57:22 69.40, -61.92 49.03 05/21/2022 15:56:13 69.42, -63.49 49.08 61.34 69
4 05/24/2022 06:33:01 70.16, 78.10 49.31 05/24/2022 06:33:35 70.17, 78.15 49.31 2.08 34
5 05/24/2022 07:23:42 -70.03,-114.38 130.84 05/24/2022 07:23:05 -70.05,-114.38 130.81 2.46 37
6 05/26/2022 21:59:20 -70.73, 25.66 130.57 05/26/2022 22:00:30 -70.61, 27.04 130.73 52.81 70
7 05/26/2022 22:49:54 70.09,-166.02 48.76 05/26/2022 22:50:04 70.12,-166.03 48.79 3.49 10
8 05/26/2022 23:40:36 -70.00, 1.43 131.34 05/26/2022 23:39:34 -70.01, 1.45 131.33 0.85 62
9 05/29/2022 14:16:03 -70.19, 142.29 131.56 05/29/2022 14:17:04 -70.21, 142.35 131.55 3.02 61
10 05/29/2022 15:06:47 70.07, -50.22 48.32 05/29/2022 15:06:32 70.05, -50.24 48.29 3.14 15
11 05/29/2022 15:57:20 -69.51, 117.93 132.27 05/29/2022 15:56:09 -69.55, 116.71 132.20 47.84 71
12 06/01/2022 06:32:56 -70.12,-101.84 132.01 06/01/2022 06:33:33 -70.11,-101.90 132.03 2.77 37
13 06/01/2022 07:23:40 70.01, 65.64 47.87 06/01/2022 07:23:00 70.00, 65.58 47.86 2.55 40
14 06/03/2022 21:59:15 70.58,-154.11 48.14 06/03/2022 22:00:25 70.48,-153.11 48.00 38.83 70
15 06/03/2022 22:49:50 -70.12, 13.94 132.35 06/03/2022 22:50:00 -70.10, 13.97 132.38 2.69 10
16 06/03/2022 23:40:33 69.96,-178.51 47.48 06/03/2022 23:39:27 69.98,-178.55 47.51 3.13 66



Historial Predications of SNOs between NOAA-20 and LANDSAT-8
